Regional Weather Roundup
Issued by NWS

Home | Current Version | Previous Version | Graphics & Text | Print | Product List | Glossary On
Versions: 1 2 3 4 5 6 7 8 9 10 11 12 13 14 15 16 17 18 19 20 21 22 23 24 25 26 27 28 29 30 31 32 33 34 35 36 37 38 39 40 41 42 43 44 45 46 47 48 49 50
346
ASUS45 KPSR 211210
RWRAZ

ARIZONA HOURLY REGIONAL WEATHER ROUNDUP
NATIONAL WEATHER SERVICE PHOENIX AZ
500 AM MST THU MAY 21 2015

NOTE: FAIR INDICATES FEW OR NO CLOUDS BELOW 12,000 FEET WITH NO
SIGNIFICANT WEATHER AND/OR OBSTRUCTIONS TO VISIBILITY.

AZZ001>003-036-211300-
NORTHWEST ARIZONA

CITY           SKY/WX    TMP DP  RH WIND       PRES   REMARKS
BULLHEAD CITY  PTCLDY    68  27  21 CALM      29.78S
KINGMAN        CLOUDY    62  24  23 SE9       29.89S
6HR MIN TEMP:  54; 6HR MAX TEMP:  64;

$$

AZZ004>008-015-016-018-211300-
NORTH CENTRAL ARIZONA

CITY           SKY/WX    TMP DP  RH WIND       PRES   REMARKS
GRAND CANYON   CLOUDY    43  33  68 NE3       30.06F
6HR MIN TEMP:  37; 6HR MAX TEMP:  43;

WILLIAMS       CLOUDY    48  27  43 SE8       30.11S
PRESCOTT       PTCLDY    53  28  38 S7        29.98F
6HR MIN TEMP:  51; 6HR MAX TEMP:  58;

FLAGSTAFF      CLOUDY    38  31  76 CALM      30.08F
6HR MIN TEMP:  38; 6HR MAX TEMP:  44;

PAYSON         MOCLDY    52  34  50 CALM      30.03S
$$

AZZ009>014-017-211300-
NORTHEAST ARIZONA

CITY           SKY/WX    TMP DP  RH WIND       PRES   REMARKS
WINSLOW        CLOUDY    55  33  43 S5        30.02S
6HR MIN TEMP:  55; 6HR MAX TEMP:  59;

SAINT JOHNS    CLOUDY    53  22  29 S3        30.05F
6HR MIN TEMP:  52; 6HR MAX TEMP:  60;

WINDOW ROCK    CLOUDY    43  33  68 S5        30.12R
6HR MIN TEMP:  43; 6HR MAX TEMP:  52;

SHOW LOW       CLOUDY    45  25  45 SE5       30.10S
$$

AZZ023-211300-
GREATER PHOENIX AREA

CITY           SKY/WX    TMP DP  RH WIND       PRES   REMARKS
PHOENIX        CLOUDY    73  39  29 E7        29.82F
6HR MIN TEMP:  72; 6HR MAX TEMP:  81;

BUCKEYE          N/A     66  39  37 NE3       29.83S
LUKE AFB       CLOUDY    72  38  28 VRB1      29.81F
6HR MIN TEMP:  72; 6HR MAX TEMP:  79;

DEER VALLEY    MOCLDY    67  40  37 E5        29.83F
6HR MIN TEMP:  67; 6HR MAX TEMP:  77;

SCOTTSDALE     CLOUDY    70  41  34 NE5       29.85F
6HR MIN TEMP:  69; 6HR MAX TEMP:  79;

MESA-GATEWAY   MOCLDY    64  43  45 SE8       29.86F
$$

AZZ027-028-211300-
SOUTHWEST MARICOPA COUNTY AND PINAL COUNTY

CITY           SKY/WX    TMP DP  RH WIND       PRES   REMARKS
CASA GRANDE    CLOUDY    66  41  39 CALM      29.84S
6HR MIN TEMP:  64; 6HR MAX TEMP:  75;

GILA BEND      FAIR      69  36  29 SE9       29.81S
6HR MIN TEMP:  68; 6HR MAX TEMP:  75;

$$

AZZ503-504-507>509-211300-
SOUTHEAST ARIZONA

CITY           SKY/WX    TMP DP  RH WIND       PRES   REMARKS
TUCSON         MOCLDY    61  30  31 E8        29.92S
6HR MIN TEMP:  61; 6HR MAX TEMP:  72;

DAVIS-MONTHAN  CLOUDY    63  28  26 SE8       29.90S
6HR MIN TEMP:  61; 6HR MAX TEMP:  71;

NOGALES        PTCLDY    57  29  34 SE5       29.97S
6HR MIN TEMP:  53; 6HR MAX TEMP:  66;

SIERRA VISTA   CLOUDY    56  22  26 NW6       30.01S
6HR MIN TEMP:  53; 6HR MAX TEMP:  68;

DOUGLAS        MOCLDY    59  26  28 E8        30.00S
6HR MIN TEMP:  52; 6HR MAX TEMP:  64;

SAFFORD        PTCLDY    57  24  28 S5        29.93S
6HR MIN TEMP:  56; 6HR MAX TEMP:  73;

$$

AZZ020-021-025-026-031-211300-
SOUTHWEST ARIZONA

CITY           SKY/WX    TMP DP  RH WIND       PRES   REMARKS
YUMA           CLOUDY    70  36  28 NW9       29.79R
6HR MIN TEMP:  70; 6HR MAX TEMP:  76;

$$

CAZ031-033-041-043-047-048-061-211300-
SOUTHERN CALIFORNIA

CITY           SKY/WX    TMP DP  RH WIND       PRES   REMARKS
DOWNTOWN L.A.  MOCLDY    57  52  83 CALM      29.94S
6HR MIN TEMP:  57; 6HR MAX TEMP:  60;

L.A. AIRPORT   MOCLDY    57  53  86 CALM      29.94F
6HR MIN TEMP:  57; 6HR MAX TEMP:  58;

SAN DIEGO      CLOUDY    61  49  64 NW3       29.97F
6HR MIN TEMP:  61; 6HR MAX TEMP:  63;

BURBANK        MOCLDY    57  50  77 S3        29.93S
6HR MIN TEMP:  57; 6HR MAX TEMP:  60;

ONTARIO        CLOUDY    58  48  69 W3        29.94S
6HR MIN TEMP:  57; 6HR MAX TEMP:  58;

RIVERSIDE      CLOUDY    59  48  67 S3        29.94S
6HR MIN TEMP:  59; 6HR MAX TEMP:  59;

PALM SPRINGS   PTCLDY    65  42  43 NW15      29.80R
6HR MIN TEMP:  65; 6HR MAX TEMP:  71;

EL CENTRO NAS  PTCLDY    65  41  41 W24G31    29.81R
6HR MIN TEMP:  65; 6HR MAX TEMP:  71;

IMPERIAL       PTCLDY    64  42  44 W16       29.79R
6HR MIN TEMP:  64; 6HR MAX TEMP:  71;

BLYTHE         CLOUDY    72  39  30 S7        29.77S
6HR MIN TEMP:  72; 6HR MAX TEMP:  80;

NEEDLES        PTCLDY    73  29  19 CALM      29.78R
6HR MIN TEMP:  71; 6HR MAX TEMP:  78;

$$

NVZ020-UTZ003-211300-
SOUTHERN NEVADA-UTAH

CITY           SKY/WX    TMP DP  RH WIND       PRES   REMARKS
LAS VEGAS      MOCLDY    66  27  23 S12       29.78R
6HR MIN TEMP:  65; 6HR MAX TEMP:  74;

SALT LAKE CITY PTCLDY    48  45  89 SE6       29.99F
6HR MIN TEMP:  48; 6HR MAX TEMP:  54;

$$

NMZ009-TXZ055-211300-
NEW MEXICO-WEST TEXAS

CITY           SKY/WX    TMP DP  RH WIND       PRES   REMARKS
ALBUQUERQUE    MOCLDY    53  42  66 E22G29    30.16R
6HR MIN TEMP:  53; 6HR MAX TEMP:  57;

EL PASO        MOCLDY    63  54  72 E7        30.05F
6HR MIN TEMP:  63; 6HR MAX TEMP:  67;

$$


........................KEY........................
SKY/WX - SKY CONDITION/WEATHER
TMP    - TEMPERATURE IN FAHRENHEIT
DP     - DEW POINT IN FAHRENHEIT
RH     - RELATIVE HUMIDITY IN PERCENT
WIND   - DIRECTION AND SPEED IN MILES PER HOUR (MPH)
VRB    - VARIABLE WIND DIRECTION
PRES   - MEAN SEA LEVEL PRESSURE IN INCHES OF MERCURY
         F - FALLING PRESSURE   R - RISING PRESSURE
         S - STEADY PRESSURE
VSB    - VISIBILITY IN MILES
HX     - HEAT INDEX IN FAHRENHEIT
WCI    - WIND CHILL INDEX IN FAHRENHEIT
TC     - TEMPERATURE IN CELSIUS WHICH IS ALSO KNOWN AS
         TEMPERATURE IN CENTIGRADE
AFB    - AIR FORCE BASE
         LUKE AFB IS LUKE AIR FORCE BASE
         DAVIS-MONTHAN IS DAVIS-MONTHAN AIR FORCE BASE
NAS    - NAVAL AIR STATION
         EL CENTRO NAS IS EL CENTRO NAVAL AIR STATION
N/A    - NOT AVAILABLE




USA.gov is the U.S. government's official web portal to all federal, state and local government web resources and services.